Home   Weather   Granby   Past weeks

Flag for Canada Past Weather in Granby, Quebec, Canada — Yesterday and Last 2 Weeks

Now
56 °F

Cool.


Feels Like: 55 °F
Forecast: 56 / 75 °F
Wind: 5 mph from South

Location: Frelighsburg

Current Time: Aug 30, 2016 at 7:06:20 AM

Latest Report: Aug 30, 2016 at 6:00 AM


Visibility: N/A

Pressure: 30.15 "Hg

Humidity: 97%

Dew Point: 55 °F

Location of GranbyLocation

Past Weather in Granby — Graph

°F

Granby Temperature Yesterday

Maximum temperature yesterday: 71 °F (at 1:00 AM)
Minimum temperature yesterday: 60 °F (at 11:00 PM)
Average temperature yesterday: 66 °F

High & Low Weather Summary for the Past Weeks

 TemperatureHumidityPressure
High82 °F (Aug 20, 3:00 PM)100% (Aug 17, 4:00 AM)30.25 "Hg (Aug 17, 4:00 AM)
Low51 °F (Aug 23, 6:00 AM)45% (Aug 19, 3:00 PM)29.71 "Hg (Aug 17, 2:00 AM)
Average68 °F78%30.02 "Hg
* Reported Aug 15 5:00 AM — Aug 30 5:00 AM, Granby, Weather by CustomWeather, © 2016

Note: Actual official high and low records may vary slightly from our data, if they occured in-between our weather recording intervals... More about our weather records

Advertising

Granby Weather History for the Previous 24 Hours

Scroll right to see more
 ConditionsComfort  
Time TempWeatherWind HumidityBarometerVisibility
5:00 AM
Tue, Aug 30
56 °FCool.5 mph97%30.16 "HgN/A
4:00 AM56 °FCool.3 mph98%30.16 "HgN/A
3:00 AM57 °FCool.3 mph97%30.16 "HgN/A
2:00 AM57 °FCool.5 mph98%30.16 "HgN/A
1:00 AM58 °FCool.5 mph97%30.17 "HgN/A
12:00 AM58 °FCool.3 mph96%30.18 "HgN/A
11:00 PM
Mon, Aug 29
60 °FCool.3 mph89%30.18 "HgN/A
10:00 PM60 °FCool.2 mph94%30.18 "HgN/A
9:00 PM62 °FCool.2 mph89%30.18 "HgN/A
8:00 PM63 °FMild.1 mph87%30.17 "HgN/A
7:00 PM65 °FMild.1 mph83%30.17 "HgN/A
6:00 PM69 °FMild.2 mph66%30.16 "HgN/A
5:00 PM69 °FMild.3 mph67%30.17 "HgN/A
4:00 PM69 °FMild.5 mph65%30.15 "HgN/A
3:00 PM69 °FMild.7 mph63%30.14 "HgN/A
2:00 PM68 °FMild.12 mph65%30.15 "HgN/A
1:00 PM66 °FMild.10 mph67%30.15 "HgN/A
12:00 PM67 °FMild.8 mph74%30.14 "HgN/A
11:00 AM65 °FMild.7 mph81%30.13 "HgN/A
10:00 AM65 °FMild.7 mph83%30.11 "HgN/A
9:00 AM65 °FMild.6 mph87%30.11 "HgN/A
8:00 AM65 °FMild.6 mph94%30.09 "HgN/A
7:00 AM64 °FMild.6 mph98%30.08 "HgN/A
Weather by CustomWeather, © 2016

See weather overviewHow to use our weather pages